Regional Weather Roundup
Issued by NWS Huntsville, AL

Home | Current Version | Previous Version | Text Only | Print | Product List | Glossary On
Versions: 1 2 3 4 5 6 7 8 9 10 11 12 13 14 15 16 17 18 19 20 21 22 23 24 25 26 27 28 29 30 31 32 33 34 35 36 37 38 39 40 41 42 43 44 45 46 47 48 49 50
000
ASUS44 KHUN 291210
RWRHUN

WEATHER ROUNDUP FOR THE TENNESSEE VALLEY
NATIONAL WEATHER SERVICE HUNTSVILLE AL
700 AM CDT WED JUL 29 2015

ALZ001>004-291300-
NORTHWEST ALABAMA

CITY           SKY/WX    TMP DP  RH WIND       PRES   REMARKS
COURTLAND HCN    N/A     75 N/A N/A CALM        N/A
BANKHEAD NF      N/A     74  74 100 NW1         N/A
RUSSELLVILLE     N/A     73 N/A N/A MISG        N/A
SHOALS AIRPORT PTSUNNY   77  72  84 CALM      30.05R
6HR MIN TEMP:  76; 6HR MAX TEMP:  79;

SHOALS TVA RES   N/A     77 N/A N/A MISG        N/A
$$

ALZ005>007-016-291300-
NORTH CENTRAL ALABAMA

CITY           SKY/WX    TMP DP  RH WIND       PRES   REMARKS
CULLMAN AG STN   N/A     75 N/A N/A CALM        N/A
DECATUR AP     CLOUDY    76  74  93 N3        30.04R
6HR MIN TEMP:  76; 6HR MAX TEMP:  78;

HUNTSVILLE AP  CLOUDY    79  73  82 N5        30.04R
6HR MIN TEMP:  78; 6HR MAX TEMP:  80;

HUN NWS/UAH      N/A     77  71  81 N3          N/A
MERIDIANVILLE  PTSUNNY   73  70  88 N3        30.04R
REDSTONE ARSN  CLOUDY    77  74  91 N6        30.03R
VINEMONT AP    FAIR      74  72  94 CALM      30.07R
$$

ALZ008>010-291300-
NORTHEAST ALABAMA

CITY           SKY/WX    TMP DP  RH WIND       PRES   REMARKS
ALBERTVILLE    PTSUNNY   73  73 100 CALM      30.04R
FORT PAYNE     SUNNY     72  68  88 CALM      30.04R FOG
SCOTTSBORO AP  PTSUNNY   73  73 100 CALM      30.04R FOG
SCOTTSBORO HCN   N/A     73 N/A N/A MISG        N/A
VALLEY HEAD      N/A     72 N/A N/A MISG        N/A
$$

TNZ076-096-097-291300-
SOUTHEASTERN MIDDLE TENNESSEE

CITY           SKY/WX    TMP DP  RH WIND       PRES   REMARKS
TULLAHOMA      CLOUDY    73  72  94 CALM      30.07R VSB 1/4
WINCHESTER     CLOUDY    73  73 100 CALM      30.06R
$$

...SURROUNDING SITES...

CITY           SKY/WX    TMP DP  RH WIND       PRES   REMARKS
ATLANTA        PTSUNNY   77  70  79 NW9       30.01R
ANNISTON       MOSUNNY   74  72  93 CALM      30.02R
BIRMINGHAM     PTSUNNY   79  75  87 CALM      30.04R
CHATTANOOGA    MOSUNNY   77  73  87 N5        30.03R
DALTON         SUNNY     73  73 100 CALM      30.02R
GADSDEN        MOSUNNY   73  68  83 NW5       30.02R
GOLDEN TRNGL   SUNNY     79  73  83 NW5       30.02R
HALEYVILLE     FAIR      74  74 100 CALM      30.08R
JACKSON TN     CLOUDY    78  74  87 CALM      30.03R
MEMPHIS        MOCLDY    84  76  76 CALM      30.03R HX  93
NASHVILLE      PTSUNNY   75  73  93 CALM      30.04R
ROME           PTSUNNY   74  73  97 CALM      30.01R
SAVANNAH       SUNNY     72  32  23 CALM      30.04S
TUPELO         CLOUDY    80  76  87 CALM      30.03R
TUSCALOOSA     SUNNY     77  75  93 CALM      30.01R FOG
$$

...GULF COAST WEATHER...

CITY           SKY/WX    TMP DP  RH WIND       PRES   REMARKS
GULFPORT       PTCLDY    79  75  87 NW3       29.99R
PASCAGOULA     PTCLDY    78  76  93 CALM      30.00R
MOBILE         MOCLDY    78  75  90 W5        30.01R
GULF SHORES    SUNNY     81  76  85 NW7       29.99S
PENSACOLA      PTSUNNY   80  74  81 NW3       29.99R
DESTIN         SUNNY     83  76  79 NW5       29.98R HX  91
PANAMA CITY    SUNNY     82  78  89 NW3       29.97R HX  91
APPALACHICOLA  SUNNY     84  78  82 NW5       29.95S HX  95
$$



USA.gov is the U.S. government's official web portal to all federal, state and local government web resources and services.